Weather History for Franklin, PA

Change the Weather History Date:

Thursday, June 13, 2013

  Actual Average Record
Temperature  
Mean Temperature 60 °F -  
Max Temperature 66 °F 79 °F 92 °F (1967)
Min Temperature 55 °F 52 °F 39 °F (1980)
Degree Days  
Heating Degree Days 4    
Growing Degree Days 10 (Base 50)    
Moisture  
Dew Point 58 °F    
Average Humidity 88    
Maximum Humidity 94    
Minimum Humidity 77    
Precipitation  
Precipitation 0.30 in - - ()
Sea Level Pressure  
Sea Level Pressure 29.68 in    
Wind  
Wind Speed 9 mph (WNW)    
Max Wind Speed 21 mph    
Max Gust Speed 32 mph    
Visibility 8 miles    
Events Thunderstorm    
Averages and records for this station are not official NWS values.
T = Trace of Precipitation, MM = Missing Value Source: NWS Daily Summary

Daily Weather History Graph

Daily Weather History Graph

Search for Another Location

Airport:

Trip Planner

Search our weather history database for the weather conditions in past years. The results will help you decide how hot, cold, wet, or windy it might be!

Date:

Astronomy

Jun. 13, 2013 Rise Set
Actual Time 5:45 AM EDT 8:53 PM EDT
Civil Twilight 5:11 AM EDT 9:27 PM EDT
Nautical Twilight 4:28 AM EDT 10:11 PM EDT
Astronomical Twilight 3:36 AM EDT 11:02 PM EDT
Moon 10:23 AM EDT (6/13) 11:56 PM EDT (6/13)
Length of Visible Light 16h 16m
Length of Day
15h 08m
Waxing Crescent, 21% of the Moon is Illuminated
Jun 13
Waxing Crescent
Jun 16
First Quarter
Jun 23
Full
Jun 30
Last Quarter
Jul 8
New

Hourly Weather History & Observations

Time (EDT) Temp. Dew Point Humidity Pressure Visibility Wind Dir Wind Speed Gust Speed Precip Events Conditions
12:15 AM 66.2 °F 64.4 °F 94% 29.80 in 4.0 mi East 5.8 mph - N/A   Partly Cloudy
12:35 AM 66.2 °F 64.4 °F 94% 29.79 in 5.0 mi East 5.8 mph - N/A   Mostly Cloudy
12:55 AM 66.2 °F 64.4 °F 94% 29.76 in 5.0 mi East 8.1 mph - N/A   Overcast
1:15 AM 66.2 °F 64.4 °F 94% 29.76 in 5.0 mi East 6.9 mph - N/A   Mostly Cloudy
1:35 AM 66.2 °F 64.4 °F 94% 29.74 in 5.0 mi ESE 6.9 mph - N/A   Mostly Cloudy
1:55 AM 66.2 °F 62.6 °F 88% 29.72 in 5.0 mi East 5.8 mph - N/A   Overcast
2:15 AM 66.2 °F 62.6 °F 88% 29.71 in 5.0 mi NE 5.8 mph - 0.01 in Thunderstorm Mostly Cloudy
2:35 AM 64.4 °F 62.6 °F 94% 29.72 in 0.8 mi North 4.6 mph - 0.01 in Thunderstorm Overcast
2:55 AM 64.4 °F 62.6 °F 94% 29.70 in 0.8 mi North 4.6 mph - 0.01 in   Overcast
3:15 AM 64.4 °F 62.6 °F 94% 29.68 in 2.0 mi ENE 8.1 mph - N/A   Overcast
3:35 AM 64.4 °F 62.6 °F 94% 29.66 in 3.0 mi ESE 5.8 mph - N/A   Overcast
3:55 AM 64.4 °F 62.6 °F 94% 29.66 in 2.5 mi ESE 8.1 mph - N/A   Overcast
4:15 AM 66.2 °F 64.4 °F 94% 29.66 in 3.0 mi SSE 10.4 mph - 0.05 in Thunderstorm Thunderstorm
4:35 AM 64.4 °F 62.6 °F 94% 29.66 in 9.0 mi SW 12.7 mph 20.7 mph 0.20 in Thunderstorm Thunderstorm
4:55 AM 64.4 °F 60.8 °F 88% 29.63 in 10.0 mi SSW 11.5 mph - 0.26 in   Overcast
5:15 AM 64.4 °F 60.8 °F 88% 29.58 in 10.0 mi SE 12.7 mph - 0.02 in   Overcast
5:35 AM 62.6 °F 60.8 °F 94% 29.56 in 10.0 mi SSE 10.4 mph 18.4 mph 0.02 in   Scattered Clouds
5:55 AM 62.6 °F 60.8 °F 94% 29.56 in 10.0 mi SSE 6.9 mph - 0.02 in   Clear
6:15 AM 64.4 °F 60.8 °F 88% 29.55 in 10.0 mi SSE 12.7 mph 20.7 mph N/A   Clear
6:35 AM 62.6 °F 60.8 °F 94% 29.55 in 10.0 mi South 11.5 mph - N/A   Clear
6:55 AM 64.4 °F 60.8 °F 88% 29.55 in 10.0 mi South 13.8 mph - N/A   Partly Cloudy
7:15 AM 64.4 °F 60.8 °F 88% 29.55 in 10.0 mi South 13.8 mph - N/A   Clear
7:35 AM 64.4 °F 60.8 °F 88% 29.54 in 10.0 mi South 17.3 mph - N/A   Scattered Clouds
7:55 AM 64.4 °F 60.8 °F 88% 29.53 in 10.0 mi SSW 16.1 mph 24.2 mph N/A   Overcast
8:15 AM 64.4 °F 60.8 °F 88% 29.53 in 10.0 mi SSW 13.8 mph 21.9 mph N/A   Overcast
8:35 AM 64.4 °F 60.8 °F 88% 29.52 in 10.0 mi SW 19.6 mph 29.9 mph N/A   Overcast
8:55 AM 64.4 °F 60.8 °F 88% 29.51 in 10.0 mi SW 16.1 mph 29.9 mph N/A   Overcast
9:15 AM 64.4 °F 60.8 °F 88% 29.53 in 10.0 mi WSW 20.7 mph 28.8 mph N/A   Overcast
9:35 AM 64.4 °F 60.8 °F 88% 29.55 in 9.0 mi West 19.6 mph 32.2 mph N/A   Overcast
9:55 AM 62.6 °F 60.8 °F 94% 29.55 in 7.0 mi West 13.8 mph 23.0 mph N/A   Overcast
10:15 AM 62.6 °F 60.8 °F 94% 29.56 in 2.0 mi West 16.1 mph 19.6 mph N/A   Overcast
10:35 AM 62.6 °F 59.0 °F 88% 29.57 in 3.0 mi West 15.0 mph 23.0 mph N/A   Overcast
10:55 AM 62.6 °F 59.0 °F 88% 29.57 in 7.0 mi West 10.4 mph 17.3 mph N/A   Overcast
11:15 AM 60.8 °F 59.0 °F 94% 29.59 in 10.0 mi NW 10.4 mph 18.4 mph N/A   Overcast
11:35 AM 60.8 °F 57.2 °F 88% 29.61 in 7.0 mi WNW 12.7 mph 23.0 mph N/A   Overcast
11:55 AM 59.0 °F 55.4 °F 88% 29.62 in 7.0 mi WNW 11.5 mph 17.3 mph N/A   Overcast
12:15 PM 59.0 °F 55.4 °F 88% 29.63 in 3.0 mi West 8.1 mph - N/A   Overcast
12:35 PM 57.2 °F 55.4 °F 94% 29.64 in 10.0 mi WNW 10.4 mph 16.1 mph N/A   Overcast
12:55 PM 59.0 °F 55.4 °F 88% 29.64 in 9.0 mi WNW 9.2 mph 16.1 mph N/A   Overcast
1:15 PM 59.0 °F 55.4 °F 88% 29.65 in 5.0 mi WNW 9.2 mph - N/A   Overcast
1:35 PM 59.0 °F 55.4 °F 88% 29.65 in 8.0 mi NW 8.1 mph 16.1 mph N/A   Overcast
1:55 PM 59.0 °F 55.4 °F 88% 29.66 in 10.0 mi WNW 11.5 mph - 0.01 in   Overcast
2:15 PM 59.0 °F 57.2 °F 94% 29.66 in 6.0 mi NW 11.5 mph - N/A   Overcast
2:35 PM 59.0 °F 57.2 °F 94% 29.68 in 5.0 mi NW 9.2 mph 16.1 mph N/A   Overcast
2:55 PM 59.0 °F 57.2 °F 94% 29.69 in 2.5 mi NW 10.4 mph 19.6 mph N/A   Overcast
3:15 PM 59.0 °F 57.2 °F 94% 29.69 in 3.0 mi NW 11.5 mph 17.3 mph N/A   Overcast
3:35 PM 59.0 °F 57.2 °F 94% 29.70 in 4.0 mi NW 9.2 mph 18.4 mph N/A   Overcast
3:55 PM 59.0 °F 55.4 °F 88% 29.71 in 3.0 mi NW 10.4 mph 18.4 mph N/A   Overcast
4:15 PM 60.8 °F 55.4 °F 82% 29.71 in 7.0 mi WNW 8.1 mph - N/A   Overcast
4:35 PM 59.0 °F 55.4 °F 88% 29.71 in 8.0 mi NNW 10.4 mph 18.4 mph N/A   Overcast
4:55 PM 59.0 °F 55.4 °F 88% 29.71 in 9.0 mi NNW 9.2 mph 17.3 mph N/A   Overcast
5:15 PM 60.8 °F 55.4 °F 82% 29.72 in 10.0 mi NNW 10.4 mph 17.3 mph N/A   Overcast
5:35 PM 62.6 °F 55.4 °F 77% 29.72 in 10.0 mi NW 6.9 mph - N/A   Overcast
5:55 PM 62.6 °F 55.4 °F 77% 29.72 in 10.0 mi NNW 6.9 mph 17.3 mph N/A   Overcast
6:15 PM 62.6 °F 55.4 °F 77% 29.73 in 10.0 mi North 8.1 mph - N/A   Overcast
6:35 PM 62.6 °F 55.4 °F 77% 29.73 in 10.0 mi NNW 6.9 mph - N/A   Mostly Cloudy
6:55 PM 62.6 °F 55.4 °F 77% 29.75 in 10.0 mi NNW 5.8 mph 17.3 mph N/A   Mostly Cloudy
7:15 PM 60.8 °F 55.4 °F 82% 29.76 in 10.0 mi North 10.4 mph - N/A   Overcast
7:35 PM 60.8 °F 55.4 °F 82% 29.77 in 10.0 mi NNW 5.8 mph - N/A   Scattered Clouds
7:55 PM 60.8 °F 53.6 °F 77% 29.78 in 10.0 mi NW 4.6 mph - N/A   Clear
8:15 PM 60.8 °F 53.6 °F 77% 29.80 in 10.0 mi NW 6.9 mph - N/A   Clear
8:35 PM 60.8 °F 53.6 °F 77% 29.80 in 10.0 mi NW 5.8 mph - N/A   Scattered Clouds
8:55 PM 59.0 °F 53.6 °F 82% 29.80 in 10.0 mi NNW 4.6 mph - N/A   Mostly Cloudy
9:15 PM 59.0 °F 53.6 °F 82% 29.81 in 10.0 mi North 3.5 mph - N/A   Overcast
9:35 PM 57.2 °F 53.6 °F 88% 29.82 in 10.0 mi NNW 5.8 mph - N/A   Overcast
9:55 PM 57.2 °F 53.6 °F 88% 29.83 in 10.0 mi NW 4.6 mph - N/A   Overcast
10:15 PM 57.2 °F 53.6 °F 88% 29.84 in 10.0 mi NW 3.5 mph - N/A   Overcast
10:35 PM 57.2 °F 53.6 °F 88% 29.84 in 10.0 mi NW 4.6 mph - N/A   Overcast
10:55 PM 57.2 °F 51.8 °F 82% 29.84 in 10.0 mi North 3.5 mph - N/A   Mostly Cloudy
11:15 PM 55.4 °F 51.8 °F 88% 29.84 in 10.0 mi Calm Calm - N/A   Partly Cloudy
11:35 PM 55.4 °F 51.8 °F 88% 29.84 in 10.0 mi NW 4.6 mph - N/A   Mostly Cloudy
11:55 PM 55.4 °F 51.8 °F 88% 29.84 in 10.0 mi NW 4.6 mph - N/A   Overcast